Terug naar catalogus

SL-3 DEB

ActiefPO
NORAD 14454·DEBRIS·🇷🇺 Russia

Gelanceerd Oct 28, 1983 vanaf Plesetsk Cosmodrome

Loading…

Volgende Passages (komende 24 uur)

TLE

VersSource: Space-Track

Epoch: Sep 14, 2026, 00:24 UTC

1 14454U 83109C   26257.01725910  .00000078  00000-0  26110-4 0  9995
2 14454  81.1590 276.5563 0093849 327.0790  60.7630 14.26419664229636

Volg SL-3 DEB in realtime met AllMySat

Download on the App Store